Theta_e
307 306 305 305 305 304 302 301 301 301 302 302 303 304 304 309 311 316 319 315 311 306 305 308 313 314 316 318 320 322 326 326 327 327 328 328 329 327 326 328 329 328 328 329 327
308 308 307 305 305 305 304 302 301 301 302 302 303 304 305 312 312 319 317 310 308 308 313 312 311 313 316 318 320 323 325 325 325 326 327 327 328 327 327 327 327 327 327 328 326
308 308 308 307 305 305 306 305 302 301 301 302 303 304 308 314 320 316 311 312 312 310 314 311 312 314 316 318 320 322 324 325 324 324 324 325 326 327 327 327 326 326 326 326 325
309 309 309 308 305 305 306 305 302 301 301 302 303 304 310 314 323 317 312 311 312 316 315 311 312 314 316 318 319 321 321 322 323 322 323 324 324 326 326 327 325 325 327 325 325
309 310 310 309 305 306 305 302 301 301 301 301 303 304 310 320 319 316 311 310 314 315 316 316 314 314 316 317 317 319 320 320 320 320 320 321 323 324 325 325 326 324 323 326 325
308 310 310 308 305 304 302 302 302 302 301 301 305 304 312 317 316 316 315 315 315 314 315 315 316 315 316 317 317 317 317 317 318 319 319 320 321 320 321 322 323 322 320 323 326
308 309 311 306 305 303 303 303 302 302 301 302 307 306 314 314 314 315 315 315 314 314 314 314 314 314 316 317 316 316 317 318 318 318 319 318 319 320 319 319 321 320 320 323 326
308 310 311 306 305 308 310 309 309 310 306 304 309 313 317 311 313 313 314 314 313 313 314 314 313 314 315 315 316 317 317 317 318 318 318 317 318 319 318 319 319 319 319 323 324
308 310 311 307 309 310 310 310 310 311 311 311 313 318 318 312 312 313 314 313 313 312 313 312 312 314 315 316 317 318 318 318 318 318 317 318 318 319 318 318 319 318 319 319 323
309 310 311 308 310 311 311 310 310 312 311 311 317 317 317 314 314 313 313 312 312 312 312 313 314 316 317 316 318 318 319 319 317 319 318 318 318 319 318 318 318 318 318 318 322
310 311 310 308 311 312 311 315 318 320 318 319 317 317 316 315 314 313 314 312 312 313 315 315 316 317 317 318 318 317 317 318 318 318 317 317 318 318 319 318 318 317 317 317 319
310 311 309 309 312 312 314 316 314 314 316 315 314 313 314 314 314 313 313 313 314 316 317 316 316 316 316 316 315 315 315 316 317 317 317 317 318 318 318 318 318 318 317 317 317
307 310 306 310 312 313 315 314 314 314 317 316 313 313 314 314 314 315 313 313 315 316 316 316 317 315 315 315 315 315 316 316 317 317 317 317 318 318 318 318 317 316 317 317 317
309 305 306 311 314 314 316 314 314 315 320 318 315 315 314 314 315 314 313 314 316 316 316 316 316 314 314 314 315 316 316 316 316 316 317 318 318 319 319 318 318 316 316 316 317
305 305 308 312 317 316 315 313 313 316 326 317 316 315 315 315 315 315 314 314 315 316 316 316 316 315 315 315 316 316 316 316 316 317 317 317 317 317 318 318 317 317 316 316 316
307 308 309 313 315 314 312 313 316 324 325 317 316 315 315 315 315 315 314 314 314 316 317 317 316 316 316 316 315 315 315 316 316 317 318 318 318 317 317 317 317 317 315 316 315
309 310 311 312 317 314 314 316 324 323 319 318 316 316 316 317 317 317 317 317 318 318 318 318 317 317 316 315 315 316 316 317 318 318 319 318 316 316 317 316 317 317 315 315 315
310 310 314 314 314 313 315 320 324 321 320 317 315 316 316 317 317 317 317 317 317 317 317 318 317 317 317 316 317 316 317 318 319 319 317 316 316 316 316 316 314 314 314 315 316
304 312 315 318 315 314 316 321 322 321 316 316 316 316 317 317 316 316 316 316 317 317 318 318 318 317 316 317 317 316 316 316 317 318 316 317 316 317 316 316 315 315 315 316 316
307 316 318 317 313 315 320 319 319 317 316 316 316 316 317 316 316 316 316 316 315 315 316 316 317 316 316 316 316 315 316 315 319 319 316 315 315 316 317 316 316 316 316 315 316
316 317 318 315 314 316 321 320 318 315 315 316 316 316 316 316 315 315 315 316 316 315 315 315 316 316 315 316 315 315 315 316 315 315 319 317 316 317 317 316 316 316 316 315 316
314 319 317 314 317 318 318 316 312 312 312 314 314 314 314 314 315 315 315 316 315 314 315 315 315 319 316 315 316 316 316 316 321 319 316 317 316 316 317 316 317 316 316 315 316
310 312 316 310 321 318 315 314 312 312 312 313 314 314 314 314 315 315 315 315 314 314 314 314 316 318 317 315 315 317 316 316 316 316 318 319 318 317 317 317 316 316 316 315 316
310 315 313 313 311 312 315 316 314 312 312 311 313 312 312 313 313 314 315 314 313 313 312 312 315 315 316 315 316 317 316 315 315 320 317 316 316 316 316 315 317 316 316 316 316
310 314 311 314 314 313 313 314 314 314 312 311 312 312 312 313 313 313 313 313 313 312 311 313 314 313 312 313 313 314 313 314 315 316 316 316 317 315 316 316 316 315 315 315 316
308 309 309 309 311 312 313 314 314 313 312 313 312 310 309 310 311 311 311 312 312 311 311 311 312 312 312 311 312 312 312 313 313 313 313 315 315 315 315 314 314 315 315 316 315
305 305 306 311 312 313 313 312 311 310 310 308 308 308 309 309 307 307 307 308 309 310 310 311 312 314 315 313 313 316 314 314 314 314 313 313 314 314 314 315 316 317 317 317 315
Wind_Speed
13 12 11 10 9 8 7 6 5 5 4 5 6 8 8 6 5 8 5 8 8 9 10 10 10 12 15 21 25 25 18 21 25 24 19 18 14 15 16 21 31 11 10 9 9
14 14 12 11 10 9 8 7 6 5 5 5 5 6 5 3 3 5 8 4 1 0 2 8 12 14 19 20 27 24 17 27 25 22 22 24 22 16 14 17 27 30 17 8 9
13 14 14 13 12 11 9 9 8 7 6 5 5 5 3 3 8 5 3 4 5 3 3 7 10 12 20 24 23 25 24 24 24 28 30 27 28 16 18 14 19 27 32 14 14
14 13 13 13 13 11 10 10 9 8 7 5 4 3 1 3 2 6 4 5 5 4 1 4 9 15 18 19 24 23 29 27 27 32 30 22 24 24 27 23 20 18 36 29 21
14 13 13 12 11 11 10 9 7 7 6 5 4 3 3 7 7 6 4 3 2 1 3 3 8 11 16 16 20 21 21 24 27 24 29 28 25 26 30 24 17 17 24 40 29
13 11 11 12 12 12 10 6 5 4 5 4 3 3 4 13 4 5 5 4 3 3 4 5 4 6 12 16 13 19 15 21 27 25 24 25 26 27 34 29 29 22 26 37 36
15 11 9 9 10 8 7 6 4 3 3 4 3 3 10 4 5 6 6 5 5 5 7 6 7 9 7 11 17 15 17 18 20 22 22 23 25 28 32 30 29 25 25 27 26
13 12 9 7 6 5 5 5 5 3 2 2 3 3 11 9 8 8 7 7 8 7 8 8 8 12 14 15 10 16 18 18 20 22 25 21 26 25 32 31 31 22 26 22 27
9 8 8 5 3 5 3 6 3 1 1 2 1 5 9 8 11 9 9 7 7 8 8 9 10 15 15 12 15 17 15 18 19 5 8 18 25 20 28 14 16 19 23 24 30
10 7 3 1 1 4 3 3 2 2 2 2 7 7 8 10 10 8 8 9 9 9 10 11 14 13 13 13 14 12 15 12 11 8 13 17 20 19 17 15 18 19 19 21 23
9 5 2 3 2 4 4 5 3 4 9 12 0 8 3 5 7 10 9 9 10 11 13 16 11 14 16 13 12 13 16 16 16 9 10 13 19 20 21 22 19 21 21 21 22
12 4 1 4 3 3 6 4 3 6 10 10 10 11 8 6 7 12 11 13 14 13 14 9 14 16 14 8 11 14 17 17 17 14 13 16 20 20 20 22 25 24 25 23 24
12 5 2 6 3 2 2 2 4 6 8 8 8 11 10 12 12 8 14 16 15 14 15 15 17 6 11 12 14 16 16 16 17 15 15 16 25 25 23 33 31 32 29 27 26
10 5 4 5 2 1 2 6 6 4 6 14 10 9 10 10 13 13 11 16 12 14 14 12 15 4 12 13 13 16 14 15 10 13 14 16 17 18 18 13 14 15 16 18 9
8 4 6 4 1 5 6 9 5 3 5 10 11 6 7 15 4 14 11 14 17 17 12 17 14 10 15 15 13 16 17 10 15 16 18 21 14 18 20 17 10 9 14 16 16
7 3 5 3 3 5 8 6 2 7 6 7 5 8 13 16 15 12 10 15 18 19 19 23 23 16 16 15 12 13 13 15 18 16 17 22 18 18 16 15 13 10 9 9 9
7 3 3 2 5 8 5 5 7 7 4 5 5 10 12 13 12 14 15 17 16 17 19 22 23 24 23 18 18 13 15 13 16 15 17 18 7 12 6 4 2 15 13 10 9
10 9 8 5 7 6 4 9 11 5 6 5 7 12 15 15 16 13 15 16 17 19 17 18 19 17 17 15 19 17 16 12 18 16 18 4 8 8 8 13 10 7 11 8 11
14 9 9 7 6 5 9 9 10 10 5 8 12 15 17 11 4 10 13 17 18 18 17 15 21 11 4 11 14 17 18 19 15 19 17 20 28 26 15 12 8 12 12 12 10
8 6 8 8 6 6 10 12 13 0 8 10 14 9 14 12 9 12 13 8 5 11 12 17 18 17 13 13 16 18 18 15 7 13 21 19 21 15 18 15 15 13 11 12 8
4 6 3 6 5 11 9 12 8 10 9 7 12 15 16 16 16 18 18 16 10 10 12 13 16 20 18 19 20 15 17 20 18 15 15 17 12 14 10 3 10 11 9 8 16
4 4 1 1 9 7 7 6 5 13 15 15 13 16 16 17 19 20 21 19 11 10 15 15 7 16 21 18 17 16 22 18 11 11 14 16 18 7 0 7 12 8 9 17 17
10 9 3 2 5 6 11 13 15 12 13 8 10 11 11 14 12 13 14 14 12 13 11 9 8 14 18 19 6 13 18 18 19 18 23 16 20 15 13 18 11 14 13 16 17
7 4 5 6 4 6 10 13 9 7 11 14 11 15 15 17 17 15 18 14 8 12 6 9 15 20 17 22 11 8 12 15 12 12 19 20 24 12 14 15 30 14 20 16 16
3 2 3 5 6 8 11 13 16 13 7 10 8 12 12 13 14 17 19 19 16 14 8 11 19 21 22 25 24 25 26 24 23 22 20 20 25 20 24 22 19 25 27 20 16
6 6 5 19 15 11 9 11 14 12 12 16 16 15 14 16 18 20 20 18 17 17 18 16 17 19 24 23 24 25 26 23 25 24 24 26 28 24 33 33 27 28 24 17 18
8 6 5 12 11 9 10 11 14 17 12 10 11 12 15 16 20 23 25 24 19 16 16 15 11 12 17 19 16 15 21 22 20 20 21 22 23 22 19 21 20 8 11 21 17
Wind_Direction
348 342 338 332 328 325 317 308 300 300 304 316 326 329 327 325 312 319 301 261 257 271 243 246 253 245 238 238 235 233 245 248 248 251 251 253 216 214 245 219 277 244 263 302 323
339 338 333 326 321 315 306 294 280 272 279 297 321 333 335 325 312 266 249 292 348 81 212 235 237 229 232 232 232 229 238 244 253 260 263 260 251 211 211 239 220 279 255 243 315
333 330 329 324 318 313 306 295 279 263 262 280 317 334 336 304 290 128 152 86 61 102 287 238 242 233 240 235 230 227 243 255 254 253 259 266 260 249 218 224 245 215 267 302 304
328 325 326 325 319 315 308 301 287 271 260 266 302 321 297 286 317 163 133 94 75 92 276 249 233 232 239 237 230 248 246 256 264 266 269 267 269 265 260 238 221 248 233 262 288
330 327 326 324 318 313 309 303 290 276 266 266 297 303 197 238 242 191 153 108 74 334 262 263 246 242 249 250 250 242 256 260 263 258 271 271 251 254 260 254 238 240 244 245 257
337 333 329 325 322 320 316 311 297 280 263 249 277 283 255 257 151 179 168 209 223 264 258 264 295 302 288 271 259 269 260 267 258 256 255 257 259 261 255 257 251 237 251 250 240
339 333 331 330 328 330 328 326 316 289 247 229 241 264 262 253 198 192 205 222 245 246 257 252 271 266 309 271 253 262 270 260 255 260 252 257 258 250 255 257 251 241 246 250 235
339 333 330 335 337 345 345 337 314 287 255 225 256 267 258 216 207 210 222 243 237 244 255 264 263 270 274 271 261 252 251 257 248 232 238 238 257 253 250 248 247 242 250 242 229
342 336 329 333 0 4 15 14 14 1 314 221 344 222 258 209 202 220 222 232 219 244 250 255 257 255 262 246 252 229 252 256 245 183 256 249 255 259 254 223 243 252 252 245 246
335 328 325 330 14 10 3 1 354 295 268 208 252 240 239 214 198 219 219 237 242 247 248 239 241 242 230 243 254 287 249 226 266 228 199 250 256 251 253 212 239 247 243 251 242
335 327 310 163 137 20 351 327 257 207 227 256 356 260 261 212 223 228 226 229 237 242 256 221 251 241 251 254 282 313 289 284 287 268 271 263 272 271 258 244 235 241 244 246 241
340 336 188 162 142 76 38 303 2 318 295 229 243 241 247 222 247 231 218 231 222 251 232 252 245 257 275 287 273 265 266 266 267 263 270 278 273 274 271 264 255 250 249 233 233
355 348 162 152 146 113 7 358 326 311 261 179 218 222 212 211 241 253 208 227 254 255 254 258 281 0 274 244 244 253 261 276 282 298 287 284 269 257 252 239 247 244 244 243 222
8 8 144 139 100 240 224 333 322 291 270 154 191 207 199 215 236 232 219 235 246 259 280 265 287 236 253 241 258 271 276 283 266 274 267 280 289 283 284 233 217 239 223 236 203
11 79 148 189 114 295 294 317 289 288 277 144 146 136 200 216 26 213 222 242 253 274 244 262 241 226 250 259 269 283 299 283 274 272 280 268 264 270 255 247 247 231 202 202 194
2 91 152 351 305 298 316 294 249 236 252 163 186 216 219 218 244 248 214 236 268 277 269 268 262 256 252 280 283 285 280 261 260 254 254 258 251 266 262 201 171 183 187 208 207
322 290 217 232 293 305 301 230 245 249 90 195 234 219 247 265 255 233 246 254 241 254 248 242 243 243 242 246 254 232 258 265 259 244 246 252 247 269 349 77 286 170 206 212 229
300 275 276 269 292 298 265 240 257 300 303 107 286 277 265 271 268 255 262 260 257 256 270 281 278 273 222 220 267 258 243 270 282 285 294 337 246 253 247 188 175 282 261 231 225
314 272 263 266 282 286 256 241 256 335 13 310 302 271 266 250 247 291 259 267 276 287 264 262 271 293 345 271 242 263 270 261 289 270 271 276 283 283 174 174 200 214 209 215 230
337 261 260 233 279 269 251 260 296 353 297 287 279 290 287 293 250 241 270 281 282 294 302 284 285 275 281 243 269 263 275 273 249 262 264 260 259 270 199 190 191 200 209 232 252
13 266 185 252 282 247 253 276 319 302 304 276 278 285 284 289 286 283 284 284 242 250 280 267 275 277 274 259 250 248 242 252 260 248 254 274 284 69 68 58 223 200 210 250 266
313 264 194 270 260 249 270 353 332 287 275 267 260 273 276 283 281 280 279 278 269 233 271 279 292 276 281 282 272 244 268 232 246 263 269 275 271 191 153 238 223 219 232 262 283
320 285 292 268 272 313 324 299 292 277 288 277 269 279 284 284 285 276 280 290 288 299 295 323 258 279 282 271 346 317 318 304 276 250 252 260 263 268 186 207 223 230 257 277 284
320 298 217 230 285 300 319 302 294 296 285 276 278 286 282 275 266 268 275 274 275 277 53 324 275 272 275 285 280 237 221 258 289 270 265 258 267 255 263 288 274 270 253 282 290
309 351 323 302 289 311 297 295 294 302 275 282 279 274 274 286 294 293 295 290 276 267 249 265 268 272 276 273 273 270 265 253 241 259 261 266 280 266 269 279 283 284 280 275 276
319 332 309 286 278 279 278 275 307 310 319 293 293 293 292 288 294 297 291 287 289 295 285 276 272 275 279 281 279 274 270 277 277 276 271 263 255 265 267 271 279 296 270 265 262
323 299 293 284 267 271 286 314 306 308 297 287 290 293 288 296 306 300 293 286 279 278 284 286 274 273 279 285 284 280 260 264 273 270 265 255 260 264 273 269 275 299 281 282 296